Location: Newark
(41.9831°N, 91.6686°W)
Time: 14:09:27
(UTC+00:00)

ISS - Pass Details

Date: 25 October 2019
Orbit: 412 x 421 km, 51.6° (Epoch: 13 November)

Event Time Altitude Azimuth Distance (km) Brightness Sun altitude
Exits shadow 11:39:34 - 229° (SW) 1,844 -0.9 -10.1°
Reaches altitude 10° 11:40:24 10° 228° (SW) 1,500 -1.3 -10.0°
Maximum altitude 11:43:46 74° 143° (SE) 441 -3.6 -9.3°
Drops below altitude 10° 11:47:08 10° 58° (ENE) 1,505 -0.1 -8.7°
Sets 11:49:15 0° 57° (ENE) 2,371 0.9 -8.3°
